Time,TemperatureF,DewpointF,PressureIn,WindDirection,WindDirectionDegrees,WindSpeedMPH,WindSpeedGustMPH,Humidity,HourlyPrecipIn,Conditions,Clouds,dailyrainin,SolarRadiationWatts/m^2,SoftwareType,DateUTC
2013-09-20 00:03:00,67.0,67.0,-100.00,SSE,167,4.0,12.0,100,0.02,,,1.10,0.000000,,2013-09-20 05:03:00,
2013-09-20 00:13:00,67.0,67.0,-100.00,SSE,167,4.0,12.0,100,0.02,,,1.10,0.000000,,2013-09-20 05:13:00,
2013-09-20 00:43:00,67.0,67.0,-100.00,WSW,237,1.0,7.0,100,0.00,,,1.10,0.000000,,2013-09-20 05:43:00,
2013-09-20 00:53:00,67.0,67.0,-100.00,WSW,237,1.0,7.0,100,0.00,,,1.10,0.000000,,2013-09-20 05:53:00,
2013-09-20 01:03:00,67.0,67.0,-100.00,WSW,237,1.0,7.0,100,0.00,,,1.10,0.000000,,2013-09-20 06:03:00,
2013-09-20 01:12:00,67.0,67.0,-100.00,WSW,237,1.0,7.0,100,0.00,,,1.10,0.000000,,2013-09-20 06:12:00,
2013-09-20 01:42:00,67.0,67.0,-100.00,SW,223,4.0,9.0,100,0.00,,,-99.99,0.000000,,2013-09-20 06:42:00,
2013-09-20 01:52:00,67.0,67.0,-100.00,SW,223,4.0,9.0,100,0.00,,,-99.99,0.000000,,2013-09-20 06:52:00,
2013-09-20 02:02:00,67.0,67.0,-100.00,SW,223,4.0,9.0,100,0.00,,,-99.99,0.000000,,2013-09-20 07:02:00,
2013-09-20 02:12:00,67.0,67.0,-100.00,SW,223,4.0,9.0,100,0.00,,,-99.99,0.000000,,2013-09-20 07:12:00,
2013-09-20 02:42:00,67.0,67.0,-100.00,WSW,237,6.0,13.0,100,0.00,,,1.10,0.000000,,2013-09-20 07:42:00,
2013-09-20 02:53:00,67.0,67.0,-100.00,WSW,237,6.0,13.0,100,0.00,,,1.10,0.000000,,2013-09-20 07:53:00,
2013-09-20 03:02:00,67.0,67.0,-100.00,WSW,237,6.0,13.0,100,0.00,,,1.10,0.000000,,2013-09-20 08:02:00,
2013-09-20 03:11:00,67.0,67.0,-100.00,WSW,237,6.0,13.0,100,0.00,,,1.10,0.000000,,2013-09-20 08:11:00,
2013-09-20 03:42:00,67.0,67.0,-100.00,SW,230,3.0,12.0,100,0.00,,,1.10,0.000000,,2013-09-20 08:42:00,
2013-09-20 03:52:00,67.0,67.0,-100.00,SW,230,3.0,12.0,100,0.00,,,1.10,0.000000,,2013-09-20 08:52:00,
2013-09-20 04:01:00,67.0,67.0,-100.00,SW,230,3.0,12.0,100,0.00,,,1.10,0.000000,,2013-09-20 09:01:00,
2013-09-20 04:12:00,67.0,67.0,-100.00,SW,230,3.0,12.0,100,0.00,,,1.10,0.000000,,2013-09-20 09:12:00,
2013-09-20 04:44:00,67.0,67.0,-100.00,SW,235,5.0,8.0,100,0.00,,,1.10,0.000000,,2013-09-20 09:44:00,
2013-09-20 04:53:00,67.0,67.0,-100.00,SW,235,5.0,8.0,100,0.00,,,1.10,0.000000,,2013-09-20 09:53:00,
2013-09-20 05:03:00,67.0,67.0,-100.00,SW,235,5.0,8.0,100,0.00,,,1.10,0.000000,,2013-09-20 10:03:00,
2013-09-20 05:12:00,67.0,67.0,-100.00,SW,235,5.0,8.0,100,0.00,,,1.10,0.000000,,2013-09-20 10:12:00,
2013-09-20 05:42:00,66.0,66.0,-100.00,WSW,249,2.0,7.0,100,0.00,,,1.08,0.000000,,2013-09-20 10:42:00,
2013-09-20 05:53:00,66.0,66.0,-100.00,WSW,249,2.0,7.0,100,0.00,,,1.08,0.000000,,2013-09-20 10:53:00,
2013-09-20 06:03:00,66.0,66.0,-100.00,WSW,249,2.0,7.0,100,0.00,,,1.08,0.000000,,2013-09-20 11:03:00,
2013-09-20 06:12:00,66.0,66.0,-100.00,WSW,249,2.0,7.0,100,0.00,,,1.08,0.000000,,2013-09-20 11:12:00,
2013-09-20 06:42:00,66.0,66.0,-100.00,West,281,6.0,9.0,100,0.14,,,1.22,0.000000,,2013-09-20 11:42:00,
2013-09-20 06:52:00,66.0,66.0,-100.00,West,281,6.0,9.0,100,0.14,,,1.22,0.000000,,2013-09-20 11:52:00,
2013-09-20 07:02:00,66.0,66.0,-100.00,West,281,6.0,9.0,100,0.14,,,1.22,0.000000,,2013-09-20 12:02:00,
2013-09-20 07:12:00,66.0,66.0,-100.00,West,281,6.0,9.0,100,0.14,,,1.22,0.000000,,2013-09-20 12:12:00,
2013-09-20 07:43:00,66.0,66.0,-100.00,WNW,303,8.0,16.0,100,0.01,,,1.23,3.000000,,2013-09-20 12:43:00,
2013-09-20 07:52:00,66.0,66.0,-100.00,WNW,303,8.0,16.0,100,0.01,,,1.23,3.000000,,2013-09-20 12:52:00,
2013-09-20 08:02:00,66.0,66.0,-100.00,WNW,303,8.0,16.0,100,0.01,,,1.23,3.000000,,2013-09-20 13:02:00,
2013-09-20 08:12:00,66.0,66.0,-100.00,WNW,303,8.0,16.0,100,0.01,,,1.23,3.000000,,2013-09-20 13:12:00,
2013-09-20 08:42:00,66.0,66.0,-100.00,West,277,5.0,10.0,100,0.00,,,1.23,58.000000,,2013-09-20 13:42:00,
2013-09-20 08:52:00,66.0,66.0,-100.00,West,277,5.0,10.0,100,0.00,,,1.23,58.000000,,2013-09-20 13:52:00,
2013-09-20 09:02:00,66.0,66.0,-100.00,West,277,5.0,10.0,100,0.00,,,1.23,58.000000,,2013-09-20 14:02:00,
2013-09-20 09:11:00,66.0,66.0,-100.00,West,277,5.0,10.0,100,0.00,,,1.23,58.000000,,2013-09-20 14:11:00,
2013-09-20 09:42:00,68.0,67.0,-100.00,West,281,7.0,13.0,98,0.00,,,-99.99,189.000000,,2013-09-20 14:42:00,
2013-09-20 09:52:00,68.0,67.0,-100.00,West,281,7.0,13.0,98,0.00,,,-99.99,189.000000,,2013-09-20 14:52:00,
2013-09-20 10:02:00,68.0,67.0,-100.00,West,281,7.0,13.0,98,0.00,,,-99.99,189.000000,,2013-09-20 15:02:00,
2013-09-20 10:12:00,68.0,67.0,-100.00,West,281,7.0,13.0,98,0.00,,,-99.99,189.000000,,2013-09-20 15:12:00,
2013-09-20 10:44:00,68.0,64.0,-100.00,WNW,284,9.0,15.0,88,0.00,,,1.22,198.000000,,2013-09-20 15:44:00,
2013-09-20 10:54:00,68.0,64.0,-100.00,WNW,284,9.0,15.0,88,0.00,,,1.22,198.000000,,2013-09-20 15:54:00,
2013-09-20 11:04:00,68.0,64.0,-100.00,WNW,284,9.0,15.0,88,0.00,,,1.22,198.000000,,2013-09-20 16:04:00,
2013-09-20 11:13:00,68.0,64.0,-100.00,WNW,284,9.0,15.0,88,0.00,,,1.22,198.000000,,2013-09-20 16:13:00,
2013-09-20 11:43:00,70.0,64.0,-100.00,West,281,8.0,15.0,80,0.00,,,-99.99,385.000000,,2013-09-20 16:43:00,
2013-09-20 11:53:00,70.0,64.0,-100.00,West,281,8.0,15.0,80,0.00,,,-99.99,385.000000,,2013-09-20 16:53:00,
2013-09-20 12:03:00,70.0,64.0,-100.00,West,281,8.0,15.0,80,0.00,,,-99.99,385.000000,,2013-09-20 17:03:00,
2013-09-20 12:13:00,70.0,64.0,-100.00,West,281,8.0,15.0,80,0.00,,,-99.99,385.000000,,2013-09-20 17:13:00,
2013-09-20 12:43:00,68.0,61.0,-100.00,West,275,11.0,17.0,79,0.00,,,1.22,437.000000,,2013-09-20 17:43:00,
2013-09-20 12:53:00,68.0,61.0,-100.00,West,275,11.0,17.0,79,0.00,,,1.22,437.000000,,2013-09-20 17:53:00,
2013-09-20 13:02:00,68.0,61.0,-100.00,West,275,11.0,17.0,79,0.00,,,1.22,437.000000,,2013-09-20 18:02:00,
2013-09-20 13:12:00,68.0,61.0,-100.00,West,275,11.0,17.0,79,0.00,,,1.22,437.000000,,2013-09-20 18:12:00,
2013-09-20 13:42:00,63.0,57.0,-100.00,West,281,11.0,17.0,81,0.00,,,1.22,139.000000,,2013-09-20 18:42:00,
2013-09-20 13:52:00,63.0,57.0,-100.00,West,281,11.0,17.0,81,0.00,,,1.22,139.000000,,2013-09-20 18:52:00,
2013-09-20 14:02:00,63.0,57.0,-100.00,West,281,11.0,17.0,81,0.00,,,1.22,139.000000,,2013-09-20 19:02:00,
2013-09-20 14:11:00,63.0,57.0,-100.00,West,281,11.0,17.0,81,0.00,,,1.22,139.000000,,2013-09-20 19:11:00,
2013-09-20 14:42:00,66.0,57.0,-100.00,WSW,257,10.0,18.0,73,0.00,,,1.22,342.000000,,2013-09-20 19:42:00,
2013-09-20 14:53:00,66.0,57.0,-100.00,WSW,257,10.0,18.0,73,0.00,,,1.22,342.000000,,2013-09-20 19:53:00,
2013-09-20 15:03:00,66.0,57.0,-100.00,WSW,257,10.0,18.0,73,0.00,,,1.22,342.000000,,2013-09-20 20:03:00,
2013-09-20 15:12:00,66.0,57.0,-100.00,WSW,257,10.0,18.0,73,0.00,,,1.22,342.000000,,2013-09-20 20:12:00,
2013-09-20 15:42:00,66.0,54.0,-100.00,WNW,282,10.0,19.0,65,0.00,,,1.22,345.000000,,2013-09-20 20:42:00,
2013-09-20 15:52:00,66.0,54.0,-100.00,WNW,282,10.0,19.0,65,0.00,,,1.22,345.000000,,2013-09-20 20:52:00,
2013-09-20 16:02:00,66.0,54.0,-100.00,WNW,282,10.0,19.0,65,0.00,,,1.22,345.000000,,2013-09-20 21:02:00,
2013-09-20 16:12:00,66.0,54.0,-100.00,WNW,282,10.0,19.0,65,0.00,,,1.22,345.000000,,2013-09-20 21:12:00,
2013-09-20 16:14:00,67.0,55.0,-100.00,West,273,9.0,20.0,65,0.00,,,1.22,279.000000,,2013-09-20 21:14:00,
2013-09-20 16:45:00,67.0,55.0,-100.00,West,273,9.0,20.0,65,0.00,,,1.22,279.000000,,2013-09-20 21:45:00,
2013-09-20 16:55:00,67.0,55.0,-100.00,West,273,9.0,20.0,65,0.00,,,1.22,279.000000,,2013-09-20 21:55:00,
2013-09-20 17:04:00,67.0,55.0,-100.00,West,273,9.0,20.0,65,0.00,,,1.22,279.000000,,2013-09-20 22:04:00,
2013-09-20 17:44:00,65.0,53.0,-100.00,WNW,289,10.0,18.0,66,0.00,,,1.22,162.000000,,2013-09-20 22:44:00,
2013-09-20 17:53:00,65.0,53.0,-100.00,WNW,289,10.0,18.0,66,0.00,,,1.22,162.000000,,2013-09-20 22:53:00,
2013-09-20 18:02:00,65.0,53.0,-100.00,WNW,289,10.0,18.0,66,0.00,,,1.22,162.000000,,2013-09-20 23:02:00,
2013-09-20 18:13:00,65.0,53.0,-100.00,WNW,289,10.0,18.0,66,0.00,,,1.22,162.000000,,2013-09-20 23:13:00,
2013-09-20 18:42:00,64.0,52.0,-100.00,WNW,290,7.0,15.0,65,0.00,,,0.97,146.000000,,2013-09-20 23:42:00,
2013-09-20 18:53:00,64.0,52.0,-100.00,WNW,290,7.0,15.0,65,0.00,,,0.97,146.000000,,2013-09-20 23:53:00,
2013-09-20 19:02:00,64.0,52.0,-100.00,WNW,290,7.0,15.0,65,0.00,,,0.97,146.000000,,2013-09-21 00:02:00,
2013-09-20 19:11:00,64.0,52.0,-100.00,WNW,290,7.0,15.0,65,0.00,,,0.97,146.000000,,2013-09-21 00:11:00,
2013-09-20 19:42:00,60.0,54.0,-100.00,West,271,4.0,10.0,80,0.00,,,0.92,11.000000,,2013-09-21 00:42:00,
2013-09-20 19:52:00,60.0,54.0,-100.00,West,271,4.0,10.0,80,0.00,,,0.92,11.000000,,2013-09-21 00:52:00,
2013-09-20 20:02:00,60.0,54.0,-100.00,West,271,4.0,10.0,80,0.00,,,0.92,11.000000,,2013-09-21 01:02:00,
2013-09-20 20:12:00,60.0,54.0,-100.00,West,271,4.0,10.0,80,0.00,,,0.92,11.000000,,2013-09-21 01:12:00,
2013-09-20 20:42:00,57.0,57.0,-100.00,West,280,5.0,21.0,100,0.02,,,0.87,0.000000,,2013-09-21 01:42:00,
2013-09-20 20:52:00,57.0,57.0,-100.00,West,280,5.0,21.0,100,0.02,,,0.87,0.000000,,2013-09-21 01:52:00,
2013-09-20 21:02:00,57.0,57.0,-100.00,West,280,5.0,21.0,100,0.02,,,0.87,0.000000,,2013-09-21 02:02:00,
2013-09-20 21:12:00,57.0,57.0,-100.00,West,280,5.0,21.0,100,0.02,,,0.87,0.000000,,2013-09-21 02:12:00,
2013-09-20 21:42:00,57.0,57.0,-100.00,WNW,302,5.0,9.0,100,0.00,,,0.44,0.000000,,2013-09-21 02:42:00,
2013-09-20 21:52:00,57.0,57.0,-100.00,WNW,302,5.0,9.0,100,0.00,,,0.44,0.000000,,2013-09-21 02:52:00,
2013-09-20 22:02:00,57.0,57.0,-100.00,WNW,302,5.0,9.0,100,0.00,,,0.44,0.000000,,2013-09-21 03:02:00,
2013-09-20 22:12:00,57.0,57.0,-100.00,WNW,302,5.0,9.0,100,0.00,,,0.44,0.000000,,2013-09-21 03:12:00,
2013-09-20 22:14:00,57.0,57.0,-100.00,WNW,298,5.0,8.0,100,0.00,,,0.19,0.000000,,2013-09-21 03:14:00,
2013-09-20 22:44:00,57.0,57.0,-100.00,WNW,298,5.0,8.0,100,0.00,,,0.19,0.000000,,2013-09-21 03:44:00,
2013-09-20 22:55:00,57.0,57.0,-100.00,WNW,298,5.0,8.0,100,0.00,,,0.19,0.000000,,2013-09-21 03:55:00,
2013-09-20 23:04:00,57.0,57.0,-100.00,WNW,298,5.0,8.0,100,0.00,,,0.19,0.000000,,2013-09-21 04:04:00,
2013-09-20 23:44:00,56.0,56.0,-100.00,WNW,300,6.0,12.0,99,0.00,,,0.17,0.000000,,2013-09-21 04:44:00,
2013-09-20 23:54:00,56.0,56.0,-100.00,WNW,300,6.0,12.0,99,0.00,,,0.17,0.000000,,2013-09-21 04:54:00,